디시인사이드 갤러리

리듬게임 갤러리

갤러리 이슈박스, 최근방문 갤러리

갤러리 본문 영역

오늘은 도라 강화주간앱에서 작성

빅사실맨갤로그로 이동합니다. 2020.07.05 09:41:36
조회 34 추천 0 댓글 2
							

viewimage.php?id=3fb5c932eddf3fa763ba&no=24b0d769e1d32ca73ded8ffa11d028313550f9fb3f9dac8b24082c81cb5f5a4418995aed99d51c9d8dcf3cbb5b2436bbd4c09d6908e2df90728a122e72a7c5f33bd8d65b1408f12d9ebcc699034f53c93c0540a84850a3a34d4996d4b5f38c24

도라 6 기타 4 비율로 플레이 할 예정

추천 비추천

0

고정닉 0

0

원본 첨부파일 1

댓글 영역

전체 리플 0
등록순정렬 기준선택

하단 갤러리 리스트 영역

왼쪽 컨텐츠 영역

갤러리 리스트 영역

갤러리 리스트
번호 제목 글쓴이 작성일 조회 추천
이슈 월간디시 8월호 : 반갑다 논란아 운영자 20/07/31 - -
설문 '나 5cm만 주라' 키 커서 부러운 여자 아이돌은? 운영자 20/08/04 - -
공지 리듬게임에 관련된 사진과 내용을 올려주시기 바랍니다. [745] 운영자 06.08.29 10673530 207
11140294 따스 홈페이지 다운 배너가 사라짐 [1] ㅇㅈ(116.43) 10:19 26 0
11140293 건대 주말 대여 09:00~01:00로 되어있는거 새벽 1시까지란거? [3] ㅇㅇ(117.111) 10:18 35 0
11140292 아무도 안궁금해하는 DDR이요 [1] RottenBlotch갤로그로 이동합니다. 10:17 40 0
11140291 이번주 토요일 주작왕 예약잡았다 끼요오오옷 [2] 뉴욕대공황갤로그로 이동합니다. 10:17 30 0
11140290 오늘 따스 업뎃 된다고 해도 kinetic갤로그로 이동합니다. 10:16 22 0
11140289 따스는대체누가이름붙인거. [1] blurtic갤로그로 이동합니다. 10:16 39 0
11140288 아 시발 주안 좆됐네 ㅇㅇ(110.70) 10:15 21 0
11140287 따스 결국 10시에 없뎃 [1] kinetic갤로그로 이동합니다. 10:14 37 0
11140286 와 사볼 저거 노래 개좋은데 [1] ㅁㅁ갤로그로 이동합니다. 10:14 30 0
11140285 아침으로 음식 500그램은 때리부은듯 [1] 5123874갤로그로 이동합니다. 10:14 16 0
11140284 인투더매드니스빡세다 [4] 말걸리기장인갤로그로 이동합니다. 10:12 54 0
11140283 따스 런처 다운로드페이지 내려갔네 십 ㅋㅋㅋ [3] Flexin(210.91) 10:11 50 0
11140282 꺼어어어어어억ㅋㅋㅋㅋㅋㅋ [4] RottenBlotch갤로그로 이동합니다. 10:11 47 1
11140281 11랩 뭐냐 신곡 [2] 바나리11갤로그로 이동합니다. 10:05 70 0
11140280 인투더매드니스 작곡가 근황 RottenBlotch갤로그로 이동합니다. 10:05 52 0
11140279 콘마이 일안해????? [1] Flexin(210.91) 10:05 35 0
11140278 디디알 서드 산 사람이 있긴있네 [1] ㅇㅇ(59.28) 10:05 53 0
11140277 매드니스 뭔곡임 [2] xiPOId갤로그로 이동합니다. 10:04 37 0
11140276 신곡 레벨 떳다고함 [3] 츠다냥갤로그로 이동합니다. 10:04 72 1
11140275 차 사고 3년 86000키로 탔는데요 [5] 팥2(39.7) 10:04 36 0
11140274 Into the Madness 11렙 [1] ㅇㅇ(61.254) 10:03 35 0
11140273 개빡치네시발ㅋㅋ [4] 말걸리기장인갤로그로 이동합니다. 10:03 48 0
11140272 여러분의 의견에 따라 오락실을 안가기로 결정했습니다.. [4] 꼰마갤로그로 이동합니다. 10:02 53 0
11140271 오늘 육지로 돌아가는데요 [4] 팥2(39.7) 10:02 30 0
11140270 휴게실 갈 때마다 맨날 보이는 직원이 있다. [5] blurtic갤로그로 이동합니다. 09:57 66 0
11140269 와 17일에 출근 안해도 된다 [3] HPMP갤로그로 이동합니다. 09:56 46 0
11140268 ㅎㅇ [6] 꼰마갤로그로 이동합니다. 09:56 53 0
11140267 수건 한번쓰면 안마름 빨래 절대 안 마름 [1] 뉴욕대공황갤로그로 이동합니다. 09:54 46 0
11140266 알바구하기졸라애매하네 [1] 정왕동부엉이갤로그로 이동합니다. 09:50 25 0
11140265 형이 내 얼굴 보더니 피부과 가라고 난리침 [7] 갓재삼(175.200) 09:49 57 0
11140264 버튼 존나박힘 [4] 바나리11갤로그로 이동합니다. 09:46 62 0
11140263 치과갓다가신곡한판뚜들겨보고집가야지 [2] 츠다냥갤로그로 이동합니다. 09:45 31 0
11140262 수강신청해보고싶네 [1] 말걸리기장인갤로그로 이동합니다. 09:42 21 0
11140261 평일아침부터오락이라니제정신이야너네들어????? [14] 츠다냥갤로그로 이동합니다. 09:38 65 0
11140260 수강신청 약 20분전 [2] 퐁퐁챵갤로그로 이동합니다. 09:37 32 0
11140259 갈까요? [2] 5123874갤로그로 이동합니다. 09:37 19 0
11140258 게임디엘리베이터앞인데시메가들림 말걸리기장인갤로그로 이동합니다. 09:35 24 0
11140257 나는돈도없고 하루벌어하루먹고살기바쁜데 [2] 리츠코의새우갤로그로 이동합니다. 09:33 41 0
11140256 29분후기타도라신규프레앙 [1] 말걸리기장인갤로그로 이동합니다. 09:31 26 0
11140255 안녕 [1] 홍예빈갤로그로 이동합니다. 09:30 15 0
11140254 우리1 우리2 어디 구기체가 나은가요 [16] MISO!#갤로그로 이동합니다. 09:30 51 0
11140253 일어나니 개장갈시간 에어갓갤로그로 이동합니다. 09:29 14 0
11140252 중독자새끼들 일도안하고 오락실부터쳐가는앰생들인가 [3] 리츠코의새우갤로그로 이동합니다. 09:28 39 0
11140251 븜스재활중 이나바메구루갤로그로 이동합니다. 09:27 15 0
11140250 10시까지 손풀고 바로 해금하는 방송 [1] 바나리11갤로그로 이동합니다. 09:22 35 0
11140249 주안 갈려고 했었는데 [4] 게메즈낙갤로그로 이동합니다. 09:18 36 0
11140248 이시간에 오락실을 가는사람이있을수가잇나?????? [3] MISO!#갤로그로 이동합니다. 09:13 33 0
11140247 울악장 기타랑 똑같으면 콘 살만하지 빅사실맨갤로그로 이동합니다. 09:11 21 0
11140246 기타콘 30만운임? 니엔테갤로그로 이동합니다. 09:08 19 0
갤러리 내부 검색
전체게시물 정렬 옵션

오른쪽 컨텐츠 영역

이슈줌NEW

1/6

힛(HIT)NEW

그때 그 힛

1/3